When you browse on this site, cookies collect data to enhance your experience and personalize the content and advertising you see.
Visit our Privacy Policy to learn more. By continuing to use the site, you agree to this use of cookies and data.
  • In Romania
  • List of Countries
  • For 7 days
  • Water Temperature
  • Weather Map
  • Weather Widgets
  • user-avatar
    Login

    Hourly Weather Fagernes

    Today, 1 June, Monday

    Time Temperature Precipitation Wind Pressure Humidity
    00:00 +12°C° 0 mm 1 mps 737 mmHg 69%
    01:00 +12°C° 0 mm 1 mps 737 mmHg 71%
    02:00 +12°C° 0 mm 1 mps 736 mmHg 71%
    03:00 +11°C° 0 mm 1 mps 736 mmHg 71%
    04:00 +11°C° 0 mm 1 mps 736 mmHg 72%
    05:00 +13°C° 0 mm 1 mps 736 mmHg 65%
    06:00 +14°C° 0 mm 0 mps 736 mmHg 59%
    07:00 +17°C° 0 mm 0 mps 737 mmHg 52%
    08:00 +18°C° 0 mm 0 mps 737 mmHg 47%
    09:00 +22°C° 0 mm 1 mps 736 mmHg 42%
    10:00 +23°C° 0 mm 1 mps 736 mmHg 37%
    11:00 +24°C° 0 mm 1 mps 736 mmHg 34%
    12:00 +24°C° 0 mm 2 mps 736 mmHg 32%
    13:00 +25°C° 0 mm 2 mps 736 mmHg 30%
    14:00 +25°C° 0 mm 2 mps 735 mmHg 30%
    15:00 +25°C° 0 mm 2 mps 735 mmHg 31%
    16:00 +25°C° 0 mm 3 mps 734 mmHg 31%
    17:00 +24°C° 0 mm 2 mps 734 mmHg 35%
    18:00 +21°C° 0 mm 2 mps 734 mmHg 39%
    19:00 +20°C° 0 mm 2 mps 733 mmHg 42%
    20:00 +18°C° 0 mm 2 mps 733 mmHg 46%
    21:00 +16°C° 0 mm 1 mps 733 mmHg 49%
    22:00 +14°C° 0 mm 1 mps 732 mmHg 52%
    23:00 +13°C° 0 mm 1 mps 732 mmHg 53%

    Tomorrow, 2 June, Tuesday

    Time Temperature Precipitation Wind Pressure Humidity
    00:00 +12°C° 0 mm 1 mps 732 mmHg 53%
    01:00 +11°C° 0 mm 1 mps 732 mmHg 53%
    02:00 +11°C° 0 mm 1 mps 731 mmHg 55%
    03:00 +11°C° 0 mm 1 mps 730 mmHg 57%
    04:00 +11°C° 0 mm 1 mps 730 mmHg 59%
    05:00 +12°C° 0 mm 1 mps 730 mmHg 56%
    06:00 +14°C° 0 mm 1 mps 730 mmHg 53%
    07:00 +15°C° 0 mm 1 mps 730 mmHg 50%
    08:00 +18°C° 0 mm 1 mps 729 mmHg 45%
    09:00 +20°C° 0 mm 1 mps 729 mmHg 40%
    10:00 +22°C° 0 mm 1 mps 729 mmHg 35%
    11:00 +23°C° 0 mm 1 mps 728 mmHg 34%
    12:00 +24°C° 0 mm 1 mps 728 mmHg 32%
    13:00 +25°C° 0 mm 2 mps 728 mmHg 31%
    14:00 +24°C° 0 mm 2 mps 727 mmHg 33%
    15:00 +24°C° 0 mm 2 mps 726 mmHg 35%
    16:00 +23°C° 0 mm 2 mps 725 mmHg 37%
    17:00 +21°C° 0 mm 2 mps 725 mmHg 41%
    18:00 +20°C° 0 mm 2 mps 724 mmHg 45%
    19:00 +19°C° 0 mm 2 mps 724 mmHg 49%
    20:00 +17°C° 0 mm 2 mps 724 mmHg 55%
    21:00 +15°C° 0 mm 2 mps 724 mmHg 61%
    22:00 +13°C° 0 mm 2 mps 723 mmHg 67%
    23:00 +13°C° 0 mm 2 mps 723 mmHg 70%

    Day after tomorrow, 3 June, Wednesday

    Time Temperature Precipitation Wind Pressure Humidity
    00:00 +13°C° 0 mm 2 mps 723 mmHg 73%
    01:00 +12°C° 0 mm 1 mps 723 mmHg 76%
    02:00 +12°C° 0 mm 2 mps 722 mmHg 77%
    03:00 +12°C° 0 mm 2 mps 722 mmHg 78%
    04:00 +13°C° 0 mm 2 mps 722 mmHg 78%
    05:00 +13°C° 0 mm 2 mps 722 mmHg 76%
    06:00 +14°C° 0 mm 2 mps 722 mmHg 74%
    07:00 +14°C° 0 mm 2 mps 721 mmHg 72%
    08:00 +15°C° 0 mm 2 mps 721 mmHg 68%
    09:00 +16°C° 0 mm 2 mps 721 mmHg 65%
    10:00 +16°C° 0 mm 2 mps 721 mmHg 61%
    11:00 +17°C° 0.1 mm 2 mps 721 mmHg 58%
    12:00 +18°C° 0.1 mm 2 mps 720 mmHg 56%
    13:00 +18°C° 0.1 mm 2 mps 720 mmHg 54%
    14:00 +19°C° 0.3 mm 2 mps 720 mmHg 52%
    15:00 +19°C° 0.3 mm 3 mps 719 mmHg 50%
    16:00 +19°C° 0.3 mm 3 mps 718 mmHg 48%
    17:00 +19°C° 0.2 mm 3 mps 718 mmHg 50%
    18:00 +18°C° 0.2 mm 3 mps 718 mmHg 52%
    19:00 +17°C° 0.2 mm 3 mps 718 mmHg 54%
    20:00 +16°C° 0 mm 2 mps 717 mmHg 60%
    21:00 +14°C° 0 mm 2 mps 717 mmHg 67%
    22:00 +12°C° 0 mm 2 mps 717 mmHg 74%
    23:00 +12°C° 0 mm 2 mps 716 mmHg 77%

    4 June, Thursday

    Time Temperature Precipitation Wind Pressure Humidity
    00:00 +11°C° 0 mm 1 mps 716 mmHg 81%
    01:00 +10°C° 0 mm 1 mps 716 mmHg 84%
    02:00 +10°C° 0 mm 1 mps 716 mmHg 87%
    03:00 +10°C° 0 mm 1 mps 716 mmHg 89%
    04:00 +9°C° 0 mm 1 mps 716 mmHg 92%
    05:00 +9°C° 0 mm 2 mps 716 mmHg 90%
    06:00 +9°C° 0 mm 2 mps 716 mmHg 89%
    07:00 +10°C° 0 mm 2 mps 716 mmHg 87%
    08:00 +12°C° 0 mm 2 mps 716 mmHg 83%
    09:00 +12°C° 0 mm 2 mps 716 mmHg 79%
    10:00 +12°C° 0 mm 3 mps 716 mmHg 75%
    11:00 +13°C° 0.3 mm 2 mps 716 mmHg 78%
    12:00 +12°C° 0.3 mm 2 mps 716 mmHg 82%
    13:00 +12°C° 0.3 mm 2 mps 716 mmHg 85%
    14:00 +12°C° 0.5 mm 2 mps 716 mmHg 87%
    15:00 +12°C° 0.5 mm 2 mps 716 mmHg 90%
    16:00 +12°C° 0.5 mm 2 mps 716 mmHg 92%
    17:00 +12°C° 0.2 mm 2 mps 715 mmHg 90%
    18:00 +13°C° 0.2 mm 2 mps 715 mmHg 89%
    19:00 +13°C° 0.2 mm 1 mps 715 mmHg 87%
    20:00 +12°C° 0.1 mm 1 mps 715 mmHg 90%
    21:00 +11°C° 0.1 mm 1 mps 715 mmHg 92%
    22:00 +10°C° 0.1 mm 1 mps 715 mmHg 94%
    23:00 +10°C° 0 mm 1 mps 715 mmHg 94%

    5 June, Friday

    Time Temperature Precipitation Wind Pressure Humidity
    00:00 +9°C° 0 mm 1 mps 714 mmHg 93%
    01:00 +9°C° 0 mm 1 mps 714 mmHg 92%
    02:00 +9°C° 0 mm 1 mps 714 mmHg 92%
    03:00 +9°C° 0 mm 1 mps 714 mmHg 93%
    04:00 +10°C° 0 mm 1 mps 714 mmHg 94%
    05:00 +9°C° 0.1 mm 2 mps 714 mmHg 94%
    06:00 +9°C° 0.1 mm 2 mps 713 mmHg 94%
    07:00 +10°C° 0.1 mm 2 mps 713 mmHg 94%
    08:00 +10°C° 0.2 mm 2 mps 713 mmHg 93%
    09:00 +10°C° 0.2 mm 2 mps 713 mmHg 93%
    10:00 +10°C° 0.2 mm 3 mps 712 mmHg 92%
    11:00 +11°C° 0.4 mm 3 mps 712 mmHg 90%
    12:00 +11°C° 0.4 mm 4 mps 711 mmHg 87%
    13:00 +12°C° 0.4 mm 4 mps 711 mmHg 85%
    14:00 +12°C° 0.6 mm 4 mps 711 mmHg 84%
    15:00 +12°C° 0.6 mm 5 mps 710 mmHg 83%
    16:00 +12°C° 0.6 mm 5 mps 710 mmHg 83%
    17:00 +12°C° 1.4 mm 4 mps 709 mmHg 87%
    18:00 +11°C° 1.4 mm 3 mps 709 mmHg 92%
    19:00 +10°C° 1.4 mm 2 mps 708 mmHg 96%
    20:00 +10°C° 2.9 mm 3 mps 708 mmHg 97%
    21:00 +10°C° 2.9 mm 3 mps 708 mmHg 97%
    22:00 +8°C° 2.9 mm 4 mps 707 mmHg 97%
    23:00 +9°C° 1.2 mm 3 mps 707 mmHg 97%

    6 June, Saturday

    Time Temperature Precipitation Wind Pressure Humidity
    00:00 +9°C° 1.2 mm 3 mps 707 mmHg 97%
    01:00 +8°C° 1.2 mm 2 mps 707 mmHg 97%
    02:00 +8°C° 0.6 mm 2 mps 707 mmHg 97%
    03:00 +7°C° 0.6 mm 2 mps 707 mmHg 96%
    04:00 +7°C° 0.6 mm 2 mps 707 mmHg 96%
    05:00 +7°C° 0.1 mm 2 mps 707 mmHg 93%
    06:00 +8°C° 0.1 mm 3 mps 707 mmHg 90%
    07:00 +8°C° 0.1 mm 3 mps 707 mmHg 87%
    08:00 +8°C° 0.2 mm 3 mps 707 mmHg 88%
    09:00 +8°C° 0.2 mm 2 mps 707 mmHg 88%
    10:00 +8°C° 0.2 mm 2 mps 707 mmHg 89%
    11:00 +8°C° 0.3 mm 2 mps 706 mmHg 88%
    12:00 +9°C° 0.3 mm 2 mps 706 mmHg 87%
    13:00 +9°C° 0.3 mm 3 mps 706 mmHg 86%
    14:00 +8°C° 1.5 mm 2 mps 705 mmHg 89%
    15:00 +7°C° 1.5 mm 2 mps 705 mmHg 93%
    16:00 +7°C° 1.5 mm 1 mps 704 mmHg 96%
    17:00 +6°C° 1.8 mm 2 mps 704 mmHg 96%
    18:00 +6°C° 1.8 mm 2 mps 705 mmHg 97%
    19:00 +4°C° 1.8 mm 3 mps 705 mmHg 97%
    20:00 +5°C° 0.4 mm 2 mps 705 mmHg 97%
    21:00 +6°C° 0.4 mm 1 mps 705 mmHg 98%
    22:00 +5°C° 0.4 mm 0 mps 706 mmHg 98%
    23:00 +6°C° 0.1 mm 1 mps 706 mmHg 98%
    Show more